Flag for Germany Weather past 2 weeks in Strausberg, Brandenburg, Germany

Now
37 °F

Light rain. Passing clouds.


Feels Like: 28 °F
Forecast: 30 / 38 °F
Wind: 15 mph from Northwest

Location: Berlin-Schoenefeld

Current Time: Jan 27, 2015 at 7:28:19 AM

Latest Report: Jan 27, 2015 at 6:50 AM


Visibility: N/A

Pressure: 29.86 "Hg

Humidity: 93%

Dew point: 36 °F

Location of StrausbergLocation

Historic Weather in Strausberg — Graph

°F

Strausberg temperature yesterday

Maximum temperature yesterday: 41 °F (at 2:50 PM)
Minimum temperature yesterday: 34 °F (at 12:20 AM)
Average temperature yesterday: 36 °F

Past Weeks' High & Low Weather Summary

 TemperatureHumidityPressure
High54 °F (Jan 13, 8:20 PM)100% (Jan 14, 9:50 PM)30.30 "Hg (Jan 14, 9:50 PM)
Low25 °F (Jan 19, 4:20 AM)54% (Jan 13, 6:20 PM)29.59 "Hg (Jan 15, 6:50 PM)
Average36 °F90%29.95 "Hg
* Reported Jan 12 6:20 AM — Jan 27 6:20 AM, Strausberg, Weather by CustomWeather, © 2014

Note: Actual official high and low records may vary slightly from our data, if they occured in-between our weather recording intervals... More about our weather records

Advertising

Strausberg weather history for previous 24 hours

 ConditionsComfort  
Time TempWeatherWind HumidityBarometerVisibility
6:20 AM
Jan 27
37 °FLight rain. Passing clouds.15 mph93%29.83 "HgN/A
5:50 AM37 °FLight rain. Partly cloudy.17 mph93%29.83 "HgN/A
5:20 AM37 °FLight rain. Passing clouds.16 mph93%29.83 "HgN/A
4:50 AM37 °FPartly cloudy.15 mph93%29.83 "HgN/A
4:20 AM37 °FPassing clouds.13 mph100%29.83 "HgN/A
3:50 AM36 °FLight rain. Passing clouds.15 mph100%29.83 "HgN/A
3:20 AM37 °FLight rain. Passing clouds.21 mph93%29.83 "HgN/A
2:50 AM39 °FLight rain. Passing clouds.18 mph93%29.80 "HgN/A
2:20 AM39 °FLight rain. Partly cloudy.18 mph93%29.80 "HgN/A
1:50 AM39 °FLight rain. Passing clouds.16 mph93%29.80 "HgN/A
1:20 AM37 °FPassing clouds.13 mph100%29.80 "HgN/A
12:50 AM37 °FLight rain. Passing clouds.12 mph100%29.80 "Hg5 mi
12:20 AM36 °FLight rain. Passing clouds.12 mph100%29.80 "Hg4 mi
11:50 PM
Jan 26
34 °FLight rain. Passing clouds.10 mph100%29.83 "Hg5 mi
11:20 PM34 °FLight rain. Passing clouds.12 mph100%29.83 "Hg4 mi
10:50 PM34 °FLight snow. Passing clouds.12 mph100%29.83 "Hg3 mi
10:20 PM34 °FLight rain. Passing clouds.14 mph100%29.83 "Hg4 mi
9:50 PM34 °FLight rain. Passing clouds.14 mph100%29.86 "Hg4 mi
9:20 PM34 °FLight rain. Partly cloudy.14 mph100%29.86 "Hg6 mi
8:50 PM36 °FLight rain. Passing clouds.14 mph100%29.89 "Hg6 mi
8:20 PM36 °FLight rain. Passing clouds.14 mph93%29.89 "HgN/A
7:50 PM36 °FLight rain. Passing clouds.15 mph93%29.89 "HgN/A
7:20 PM37 °FLight rain. Passing clouds.16 mph87%29.92 "HgN/A
6:50 PM37 °FLight rain. Passing clouds.15 mph87%29.92 "HgN/A
6:20 PM39 °FLight rain. Passing clouds.14 mph81%29.95 "HgN/A
5:50 PM39 °FPassing clouds.13 mph81%29.95 "HgN/A
5:20 PM39 °FPassing clouds.13 mph81%29.98 "HgN/A
4:50 PM39 °FPassing clouds.14 mph81%29.98 "HgN/A
4:20 PM39 °FPartly sunny.13 mph81%30.01 "HgN/A
3:50 PM39 °FPartly sunny.14 mph81%30.01 "HgN/A
3:20 PM39 °FPartly sunny.15 mph81%30.04 "HgN/A
2:50 PM41 °FPartly sunny.12 mph81%30.04 "HgN/A
2:20 PM39 °FPartly sunny.13 mph87%30.04 "HgN/A
1:50 PM39 °FPartly sunny.12 mph87%30.07 "HgN/A
1:20 PM39 °FBroken clouds.13 mph87%30.09 "HgN/A
12:50 PM37 °FPartly sunny.13 mph93%30.12 "HgN/A
12:20 PM37 °FBroken clouds.9 mph93%30.12 "HgN/A
11:50 AM37 °FPartly sunny.10 mph93%30.15 "HgN/A
11:20 AM37 °FPartly sunny.10 mph93%30.15 "HgN/A
10:50 AM36 °FPartly sunny.9 mph100%30.18 "HgN/A
10:20 AM36 °FLow clouds.9 mph93%30.18 "HgN/A
9:50 AM36 °FLow clouds.9 mph100%30.21 "HgN/A
9:20 AM36 °FLow clouds.8 mph100%30.21 "HgN/A
8:50 AM34 °FLow clouds.8 mph100%30.21 "HgN/A
8:20 AM34 °FPartly sunny.8 mph100%30.21 "HgN/A
7:50 AM34 °FPassing clouds.7 mph100%30.24 "HgN/A
7:20 AM34 °FPartly cloudy.7 mph100%30.24 "HgN/A
Weather by CustomWeather, © 2014

See weather overviewHow to use our weather pages